Hourly Data Report for October 22, 2014

All times are specified in Local Standard Time (LST). Add 1 hour to adjust for Daylight Saving Time where and when it is observed.

FREDERICTON
NEW BRUNSWICK

45°52'08.000" N
66°32'14.000" W
20.70 m
8101505
71700
YFC

Download Data

Hourly Data (October 2014)
Hourly Data Report for October 22, 2014
Temp Definition
°C
Dew Point Temp Definition
°C
Rel Hum Definition
%
Wind Dir Definition
10's deg

Wind Spd Definition
km/h
Visibility Definition
km
Stn Press Definition
kPa
Hmdx Definition


Wind Chill Definition


Weather Definition


TIME
00:00 Legend Double Dagger 7.3 3.1 74 3 9 16.1 102.28     LegendNANA
01:00 Legend Double Dagger 6.7 3.2 78 2 9 16.1 102.30     Rain
02:00 Legend Double Dagger 6.2 3.7 84 2 11 16.1 102.31     Rain
03:00 Legend Double Dagger 5.9 3.9 87 4 11 16.1 102.29     Rain
04:00 Legend Double Dagger 6.2 4.2 87 3 15 16.1 102.25     LegendNANA
05:00 Legend Double Dagger 6.6 4.4 86 4 13 16.1 102.31     LegendNANA
06:00 Legend Double Dagger 6.4 3.7 83 3 17 16.1 102.34     LegendNANA
07:00 Legend Double Dagger 5.8 3.8 87 3 11 16.1 102.43     LegendNANA
08:00 Legend Double Dagger 6.5 4.0 84 2 18 16.1 102.47     LegendNANA
09:00 Legend Double Dagger 7.8 4.7 81 4 24 16.1 102.50     LegendNANA
10:00 Legend Double Dagger 9.2 5.4 77 4 26 16.1 102.51     LegendNANA
11:00 Legend Double Dagger 11.5 4.9 64 6 34 16.1 102.42     LegendNANA
12:00 Legend Double Dagger 10.7 4.1 64 4 24 16.1 102.41     LegendNANA
13:00 Legend Double Dagger 10.3 4.4 67 5 32 16.1 102.37     LegendNANA
14:00 Legend Double Dagger 8.6 6.1 84 3 26 16.1 102.37     Moderate Rain
15:00 Legend Double Dagger 8.1 6.7 91 2 21 16.1 102.36     Rain
16:00 Legend Double Dagger 7.6 6.6 93 3 24 11.3 102.36     Moderate Rain
17:00 Legend Double Dagger 7.3 6.3 93 2 24 16.1 102.36     Moderate Rain
18:00 Legend Double Dagger 7.2 6.1 93 2 30 16.1 102.30     Rain
19:00 Legend Double Dagger 7.1 5.7 91 3 30 12.9 102.33     Rain
20:00 Legend Double Dagger 6.9 6.0 94 3 21 11.3 102.32     Moderate Rain
21:00 Legend Double Dagger 7.0 6.3 95 3 28 6.4 102.23     Heavy Rain,Fog
22:00 Legend Double Dagger 7.2 6.2 93 3 32 12.9 102.17     Rain
23:00 Legend Double Dagger 7.4 6.5 94 4 30 11.3 102.15     Rain

Notes on Data Quality.

Legend

  • E = Estimated
  • M = Missing
  • NA = Not Available
  • ‡ = Partner data that is not subject to review by the National Climate Archives
Date modified: